Location: Estes Park
(40.3770°N, 105.5210°W)
Time: 05:23:53
(UTC-06:00)

ISS - Pass Details

Date: 07 October 2017
Orbit: 401 x 408 km, 51.6° (Epoch: 25 October)

Event Time Altitude Azimuth Distance (km) Brightness Sun altitude
Rises 20:12:48 0° 312° (NW) 2,323 1.0 -19.6°
Reaches altitude 10° 20:15:26 10° 335° (NNW) 1,463 -0.6 -20.1°
Enters shadow 20:17:13 16° 7° (N) 1,150 -1.5 -20.4°
